Hourly Weather Kozubiec

Today, 29 October, Thursday

Time Temperature Precipitation Wind Pressure Humidity
00:00 +9°C° 0 mm 3 mps 751 mmHg 84%
01:00 +8°C° 0 mm 3 mps 751 mmHg 86%
02:00 +9°C° 0 mm 3 mps 751 mmHg 86%
03:00 +9°C° 0 mm 3 mps 751 mmHg 85%
04:00 +8°C° 0 mm 4 mps 751 mmHg 85%
05:00 +8°C° 0 mm 4 mps 750 mmHg 85%
06:00 +8°C° 0 mm 4 mps 750 mmHg 86%
07:00 +7°C° 0 mm 4 mps 750 mmHg 86%
08:00 +8°C° 0.1 mm 4 mps 750 mmHg 84%
09:00 +9°C° 0.1 mm 5 mps 750 mmHg 83%
10:00 +10°C° 0.1 mm 6 mps 750 mmHg 81%
11:00 +10°C° 0.3 mm 6 mps 750 mmHg 78%
12:00 +11°C° 0.3 mm 6 mps 750 mmHg 74%
13:00 +11°C° 0.3 mm 6 mps 750 mmHg 70%
14:00 +12°C° 0.1 mm 5 mps 751 mmHg 71%
15:00 +10°C° 0.1 mm 5 mps 751 mmHg 71%
16:00 +9°C° 0.1 mm 5 mps 752 mmHg 71%
17:00 +8°C° 0 mm 5 mps 752 mmHg 74%
18:00 +8°C° 0 mm 5 mps 753 mmHg 76%
19:00 +7°C° 0 mm 4 mps 753 mmHg 79%
20:00 +7°C° 0 mm 4 mps 754 mmHg 78%
21:00 +7°C° 0 mm 4 mps 754 mmHg 77%
22:00 +7°C° 0 mm 4 mps 754 mmHg 77%
23:00 +7°C° 0 mm 4 mps 754 mmHg 80%

Tomorrow, 30 October, Friday

Time Temperature Precipitation Wind Pressure Humidity
00:00 +6°C° 0 mm 4 mps 755 mmHg 83%
01:00 +5°C° 0 mm 4 mps 755 mmHg 86%
02:00 +5°C° 0 mm 4 mps 755 mmHg 87%
03:00 +5°C° 0 mm 4 mps 755 mmHg 88%
04:00 +5°C° 0 mm 4 mps 754 mmHg 89%
05:00 +5°C° 0 mm 3 mps 754 mmHg 89%
06:00 +5°C° 0 mm 3 mps 754 mmHg 89%
07:00 +5°C° 0 mm 3 mps 754 mmHg 88%
08:00 +6°C° 0.4 mm 4 mps 754 mmHg 89%
09:00 +6°C° 0.4 mm 4 mps 754 mmHg 89%
10:00 +6°C° 0.4 mm 4 mps 753 mmHg 90%
11:00 +7°C° 1.3 mm 4 mps 753 mmHg 92%
12:00 +7°C° 1.3 mm 4 mps 753 mmHg 93%
13:00 +7°C° 1.3 mm 4 mps 752 mmHg 95%
14:00 +8°C° 1.1 mm 3 mps 752 mmHg 95%
15:00 +9°C° 1.1 mm 3 mps 752 mmHg 96%
16:00 +10°C° 1.1 mm 3 mps 752 mmHg 96%
17:00 +10°C° 1.3 mm 3 mps 752 mmHg 96%
18:00 +10°C° 1.3 mm 4 mps 752 mmHg 96%
19:00 +11°C° 1.3 mm 4 mps 752 mmHg 97%
20:00 +11°C° 1.2 mm 4 mps 753 mmHg 97%
21:00 +11°C° 1.2 mm 3 mps 753 mmHg 97%
22:00 +11°C° 1.2 mm 3 mps 754 mmHg 97%
23:00 +11°C° 0.7 mm 3 mps 754 mmHg 97%

Day after tomorrow, 31 October, Saturday

Time Temperature Precipitation Wind Pressure Humidity
00:00 +10°C° 0.7 mm 2 mps 754 mmHg 97%
01:00 +10°C° 0.7 mm 2 mps 754 mmHg 97%
02:00 +10°C° 0.3 mm 2 mps 755 mmHg 96%
03:00 +9°C° 0.3 mm 2 mps 755 mmHg 96%
04:00 +9°C° 0.3 mm 2 mps 756 mmHg 95%
05:00 +9°C° 0.3 mm 2 mps 756 mmHg 95%
06:00 +9°C° 0.3 mm 2 mps 757 mmHg 95%
07:00 +10°C° 0.3 mm 1 mps 757 mmHg 94%
08:00 +9°C° 0 mm 2 mps 757 mmHg 91%
09:00 +10°C° 0 mm 2 mps 758 mmHg 87%
10:00 +10°C° 0 mm 2 mps 758 mmHg 84%
11:00 +12°C° 0 mm 2 mps 758 mmHg 79%
12:00 +13°C° 0 mm 2 mps 758 mmHg 74%
13:00 +13°C° 0 mm 2 mps 759 mmHg 69%
14:00 +13°C° 0 mm 2 mps 759 mmHg 70%
15:00 +12°C° 0 mm 2 mps 759 mmHg 72%
16:00 +10°C° 0 mm 2 mps 759 mmHg 74%
17:00 +10°C° 0 mm 2 mps 759 mmHg 76%
18:00 +9°C° 0 mm 2 mps 759 mmHg 78%
19:00 +8°C° 0 mm 3 mps 760 mmHg 80%
20:00 +8°C° 0 mm 3 mps 759 mmHg 82%
21:00 +7°C° 0 mm 3 mps 759 mmHg 84%
22:00 +7°C° 0 mm 3 mps 759 mmHg 87%
23:00 +7°C° 0 mm 3 mps 759 mmHg 88%

1 November, Sunday

Time Temperature Precipitation Wind Pressure Humidity
00:00 +7°C° 0 mm 3 mps 759 mmHg 90%
01:00 +5°C° 0 mm 3 mps 759 mmHg 91%
02:00 +5°C° 0 mm 3 mps 759 mmHg 92%
03:00 +5°C° 0 mm 3 mps 759 mmHg 92%
04:00 +5°C° 0 mm 3 mps 759 mmHg 92%
05:00 +5°C° 0 mm 4 mps 758 mmHg 92%
06:00 +5°C° 0 mm 4 mps 758 mmHg 91%
07:00 +5°C° 0 mm 4 mps 758 mmHg 90%
08:00 +6°C° 0 mm 5 mps 758 mmHg 84%
09:00 +7°C° 0 mm 5 mps 758 mmHg 78%
10:00 +8°C° 0 mm 5 mps 758 mmHg 71%
11:00 +9°C° 0 mm 5 mps 757 mmHg 69%
12:00 +10°C° 0 mm 6 mps 757 mmHg 66%
13:00 +11°C° 0 mm 6 mps 757 mmHg 63%
14:00 +10°C° 0 mm 5 mps 756 mmHg 66%
15:00 +10°C° 0 mm 5 mps 756 mmHg 69%
16:00 +10°C° 0 mm 4 mps 756 mmHg 72%
17:00 +10°C° 0 mm 4 mps 756 mmHg 75%
18:00 +8°C° 0 mm 4 mps 756 mmHg 78%
19:00 +8°C° 0 mm 4 mps 756 mmHg 81%
20:00 +8°C° 0 mm 4 mps 756 mmHg 83%
21:00 +7°C° 0 mm 4 mps 755 mmHg 85%
22:00 +7°C° 0 mm 4 mps 755 mmHg 88%
23:00 +7°C° 0 mm 4 mps 755 mmHg 89%

2 November, Monday

Time Temperature Precipitation Wind Pressure Humidity
00:00 +7°C° 0 mm 4 mps 755 mmHg 91%
01:00 +7°C° 0 mm 4 mps 755 mmHg 93%
02:00 +8°C° 0 mm 3 mps 755 mmHg 93%
03:00 +8°C° 0 mm 3 mps 755 mmHg 93%
04:00 +8°C° 0 mm 3 mps 754 mmHg 93%
05:00 +8°C° 0 mm 3 mps 754 mmHg 93%
06:00 +8°C° 0 mm 3 mps 754 mmHg 92%
07:00 +8°C° 0 mm 3 mps 754 mmHg 92%
08:00 +9°C° 0 mm 3 mps 754 mmHg 87%
09:00 +10°C° 0 mm 4 mps 754 mmHg 82%
10:00 +12°C° 0 mm 4 mps 754 mmHg 77%
11:00 +12°C° 0 mm 4 mps 754 mmHg 75%
12:00 +13°C° 0 mm 4 mps 754 mmHg 73%
13:00 +14°C° 0 mm 4 mps 754 mmHg 70%
14:00 +14°C° 0 mm 4 mps 754 mmHg 73%
15:00 +13°C° 0 mm 3 mps 754 mmHg 76%
16:00 +12°C° 0 mm 3 mps 753 mmHg 79%
17:00 +12°C° 0 mm 3 mps 753 mmHg 79%
18:00 +12°C° 0 mm 3 mps 754 mmHg 80%
19:00 +12°C° 0 mm 3 mps 754 mmHg 81%
20:00 +12°C° 0 mm 3 mps 754 mmHg 81%
21:00 +12°C° 0 mm 3 mps 754 mmHg 80%
22:00 +12°C° 0 mm 3 mps 754 mmHg 80%
23:00 +12°C° 0 mm 3 mps 754 mmHg 80%

3 November, Tuesday

Time Temperature Precipitation Wind Pressure Humidity
00:00 +12°C° 0 mm 3 mps 754 mmHg 81%
01:00 +11°C° 0 mm 3 mps 754 mmHg 81%
02:00 +11°C° 0.1 mm 3 mps 754 mmHg 82%
03:00 +11°C° 0.1 mm 3 mps 754 mmHg 82%
04:00 +11°C° 0.1 mm 3 mps 754 mmHg 83%
05:00 +11°C° 0.4 mm 3 mps 754 mmHg 83%
06:00 +10°C° 0.4 mm 3 mps 754 mmHg 84%
07:00 +10°C° 0.4 mm 3 mps 755 mmHg 84%
08:00 +10°C° 1.3 mm 3 mps 755 mmHg 85%
09:00 +10°C° 1.3 mm 3 mps 755 mmHg 85%
10:00 +10°C° 1.3 mm 3 mps 755 mmHg 86%
11:00 +9°C° 1.7 mm 3 mps 755 mmHg 87%
12:00 +9°C° 1.7 mm 3 mps 755 mmHg 88%
13:00 +9°C° 1.7 mm 3 mps 755 mmHg 89%
14:00 +9°C° 1.7 mm 2 mps 756 mmHg 89%
15:00 +9°C° 1.7 mm 2 mps 756 mmHg 88%
16:00 +9°C° 1.7 mm 2 mps 756 mmHg 88%
17:00 +9°C° 0.5 mm 2 mps 756 mmHg 87%
18:00 +9°C° 0.5 mm 2 mps 756 mmHg 85%
19:00 +9°C° 0.5 mm 2 mps 757 mmHg 84%
20:00 +9°C° 0 mm 2 mps 757 mmHg 84%
21:00 +9°C° 0 mm 2 mps 757 mmHg 85%
22:00 +9°C° 0 mm 2 mps 757 mmHg 85%
23:00 +8°C° 0 mm 2 mps 757 mmHg 86%
Show more